#timestamp,LO_Frequency,Hit,StdDev 
1552050015.7,286047000.3,N
1552050035.8,286047004.0,Y
1552050055.6,286047002.2,P
1552050075.5,286047000.2,N
1552050095.3,286046998.7,N
1552050115.2,286047000.5,N
1552050135.9,286047002.8,N
1552050155.7,286047000.3,N
1552050175.6,286046999.7,N
1552050195.4,286046999.9,N
1552050215.2,286047011.9,Y
1552050235.1,286047002.8,P
1552050236.0,286047002.8,N
1552050255.8,286047001.0,N
1552050275.7,286046996.6,Y
1552050295.5,286046997.6,P
1552050315.3,286046997.3,N
1552050335.2,286046998.8,N
1552050355.0,286046997.0,N
1552050355.9,286046997.0,N
1552050375.8,286046997.5,N
1552050395.6,286046997.2,N
1552050415.4,286046997.8,N
1552050435.3,286046996.7,N
1552050455.1,286046999.2,N
1552050475.8,286046996.7,N
1552050495.7,286046995.1,Y
1552050515.5,286046998.9,P
1552050535.4,286046998.4,P
1552050555.2,286047002.8,P
1552050575.0,286046999.7,N
1552050575.9,286046999.7,N
1552050595.8,286046998.2,N
1552050615.6,286047001.1,N
1552050635.4,286046999.8,N
1552050655.3,286046998.2,N
1552050675.1,286047000.7,N
1552050695.9,286047000.3,N
1552050715.7,286047002.7,N
1552050735.5,286047002.4,N
1552050755.4,286047000.0,N
1552050775.2,286046999.8,N
1552050795.0,286047000.5,N
1552050795.9,286047000.5,N
1552050815.8,286046998.1,N
1552050835.6,286046996.5,N
1552050855.5,286046996.8,N
1552050875.3,286046999.4,N
1552050895.1,286046996.9,N
1552050915.9,286046999.3,N
1552050935.7,286046997.2,N
1552050955.5,286046996.5,N
1552050975.4,286046998.6,N
1552050995.2,286047000.3,N
1552051015.1,286046999.8,N
1552051016.0,286046999.8,N
1552051035.8,286047000.1,N
1552051055.6,286046999.8,N
1552051075.5,286047001.6,N
1552051095.3,286046999.9,N
1552051115.2,286046998.2,N
1552051135.9,286047000.8,N
1552051155.7,286046999.7,N
1552051175.6,286047002.2,N
1552051195.4,286047001.6,N
1552051215.3,286047001.8,N
1552051235.1,286047001.9,N
1552051236.0,286047001.9,N
1552051255.8,286047001.9,N
1552051275.7,286047001.9,N
1552051295.5,286047001.7,N
1552051315.3,286047002.7,N
1552051335.2,286047002.0,N
1552051355.0,286047004.3,N
1552051355.9,286047004.3,N
1552051375.8,286047004.0,N
1552051395.6,286047001.7,N
1552051415.4,286047004.4,N
1552051435.3,286047004.3,N
1552051455.1,286047003.7,N
1552051475.9,286047003.4,N
1552051495.7,286047005.6,N
1552051515.5,286047006.0,Y
1552051535.4,286047002.3,P
1552051555.2,286047001.2,P
1552051575.1,286047000.7,N
1552051576.0,286047000.7,N
1552051595.8,286047000.6,N
1552051615.6,286047000.1,N
1552051635.5,286047002.4,Y
1552051655.3,286047000.8,P
1552051675.2,286046999.0,P
1552051695.9,286046996.6,P
1552051715.7,286046994.9,N
1552051735.6,286046995.3,N
1552051755.4,286046995.6,N
1552051775.2,286046997.9,N
1552051795.1,286046999.5,N
1552051796.0,286046999.5,N
1552051815.8,286046998.8,N
1552051835.7,286046998.6,N
1552051855.5,286046998.4,N
1552051875.3,286046998.6,N
1552051895.2,286046996.6,N
1552051915.0,286046997.2,N
1552051915.9,286046997.2,N
1552051935.8,286046999.3,N
1552051955.6,286046998.8,N
1552051975.4,286046998.8,N
1552051995.3,286047000.6,N
1552052015.1,286046998.7,N
1552052035.8,286046998.3,N
1552052055.7,286046998.1,N
1552052075.5,286046999.9,N
1552052095.4,286047000.7,N
1552052115.2,286046999.3,N
1552052135.0,286046998.2,N
1552052135.9,286046998.2,N
1552052155.8,286046998.1,N
1552052175.6,286047001.1,N
1552052195.4,286046998.2,N
1552052215.3,286046998.3,N
1552052235.1,286046998.7,N
1552052255.9,286047000.4,N
1552052275.7,286047000.0,N
1552052295.5,286046998.8,N
1552052315.4,286046998.8,N
1552052335.2,286046999.0,N
1552052355.0,286046998.1,N
1552052355.9,286046998.1,N
1552052375.8,286046999.6,N
1552052395.6,286047001.2,N
1552052415.5,286047001.1,N
1552052435.3,286047000.5,N
1552052455.1,286047001.1,N
1552052475.9,286046999.2,N
1552052495.7,286046998.7,N
1552052515.6,286047001.2,N
1552052535.4,286047000.5,N
1552052555.2,286047000.6,N
1552052575.1,286047002.8,N
1552052576.0,286047002.8,N
1552052595.8,286047002.8,N
1552052615.6,286047000.6,N
1552052635.5,286046999.3,N
1552052655.3,286046996.5,N
1552052675.2,286046996.7,N
1552052695.9,286046999.5,N
1552052715.7,286046996.9,N
1552052735.6,286046995.3,N
1552052755.4,286046999.3,N
1552052775.2,286047000.0,N
1552052795.1,286046999.9,N
1552052796.0,286046999.9,N
1552052815.8,286047000.7,N
1552052835.7,286047000.9,N
1552052855.5,286046998.2,N
1552052875.3,286047001.0,N
1552052895.2,286047002.2,N
1552052915.9,286047002.7,N
1552052935.7,286047000.1,N
1552052955.6,286047000.7,N
1552052975.4,286047000.0,N
1552052995.3,286046998.1,N
1552053015.1,286046998.6,N
1552053016.0,286046998.6,N
1552053035.8,286046998.1,N
1552053055.7,286047000.6,N
1552053075.5,286046998.7,N
1552053095.3,286046996.9,N
1552053115.2,286046996.8,N
1552053135.0,286046998.0,N
1552053135.9,286046998.0,N
1552053155.8,286046997.3,N
1552053175.6,286046997.5,N
1552053195.4,286046996.0,N
1552053215.3,286046997.6,N
1552053235.1,286046997.8,N
1552053255.8,286046997.1,N
1552053275.7,286046997.0,N
1552053295.5,286046999.6,N
1552053315.4,286046999.0,N
1552053335.2,286046998.5,N
1552053355.0,286047000.5,N
1552053355.9,286047000.5,N
1552053375.8,286046998.9,N
1552053395.6,286046999.2,N
1552053415.4,286046997.0,N
1552053435.3,286046997.3,N
1552053455.1,286046997.5,N
1552053475.9,286046997.1,N
1552053495.7,286046999.5,N
1552053515.5,286046999.2,N
1552053535.4,286046997.1,N
1552053555.2,286046996.5,N
1552053575.0,286046999.3,N
1552053575.9,286046999.3,N
1552053595.8,286046998.5,N
